Regional Weather Roundup
Issued by NWS Binghamton, NY

Home | Current Version | Previous Version | Text Only | Print | Product List | Glossary On
Versions: 1 2 3 4 5 6 7 8 9 10 11 12 13 14 15 16 17 18 19 20 21 22 23 24 25 26 27
000
ASUS41 KBGM 311610
RWRBGM

REGIONAL WEATHER ROUNDUP
NATIONAL WEATHER SERVICE BINGHAMTON NY
1200 PM EDT TUE MAY 31 2016

Note: "fair" indicates few or no clouds below 12,000 feet with no
significant weather and/or obstructions to visibility.

* = Station(s) that does not report precipitation, such as rain,
snow, etc, also no thunder or fog.

NYZ009-015>018-022>025-036-037-044>046-055>057-062-311700
...Central New York...

CITY           SKY/WX    TMP DP  RH WIND       PRES   REMARKS
Binghamton     MOSUNNY   73  54  51 VRB5G16   30.02S
Cortland       FAIR      73  54  49 W6        30.01S
Dansville      SUNNY     77  53  43 N10       30.01F
Elmira         MOSUNNY   81  55  40 W8        29.99S
Ithaca         MOSUNNY   75  54  47 W9        30.03R
Hamilton       MOSUNNY   77  52  41 N6        30.00S
Hornell        MOSUNNY   77  55  47 N7        30.05S
Monticello     SUNNY     77  54  44 NW13      30.02S
Norwich        MOSUNNY   77  52  41 NW9       30.00S
Penn Yan       SUNNY     76  53  44 NW6       30.02S
Rome           SUNNY     76  54  46 W10G18    29.98S
Sidney         SUNNY     77  57  50 NW8       30.00F
Syracuse       MOSUNNY   77  50  38 W12G23    29.98S
$$

PAZ038>040-043-044-047-048-072-311700
...Northeast Pennsylvania...

CITY           SKY/WX    TMP DP  RH WIND       PRES   REMARKS
Hazleton       SUNNY     75  52  43 N7        30.07R
Scranton       SUNNY     79  56  45 NW7       30.00F
$$
&&
KEY
WCI = Wind Chill Index
VSB = Visibility
HX  = Heat Index
$$




USA.gov is the U.S. government's official web portal to all federal, state and local government web resources and services.